Flag for Hungary Weather past 2 weeks in Budapest, Hungary

Now
79 °F

Passing clouds.


Feels Like: 79 °F
Forecast: 60 / 85 °F
Wind: 7 mph from Northwest

Location: Ferenc Liszt International Airport

Current Time: Jul 24, 2014 at 3:54:55 PM

Latest Report: Jul 24, 2014 at 3:30 PM


Visibility: N/A

Pressure: 29.83 "Hg

Humidity: 45%

Dew point: 55 °F

Location of BudapestLocation

Historic Weather in Budapest — Graph

°F

Budapest temperature yesterday

Maximum temperature yesterday: 77 °F (at 2:00 PM)
Minimum temperature yesterday: 64 °F (at 4:30 AM)
Average temperature yesterday: 70 °F

Past Weeks' High & Low Weather Summary

 TemperatureHumidityPressure
High91 °F (Jul 21, 2:00 PM)100% (Jul 11, 8:30 AM)30.07 "Hg (Jul 11, 8:30 AM)
Low55 °F (Jul 10, 5:00 AM)31% (Jul 20, 4:30 PM)29.59 "Hg (Jul 11, 3:30 PM)
Average73 °F66%29.88 "Hg
* Reported Jul 9 3:00 PM — Jul 24 3:00 PM, Budapest, Weather by CustomWeather, © 2014

Note: Actual official high and low records may vary slightly from our data, if they occured in-between our weather recording intervals... More about our weather records

Advertising

Budapest weather history for previous 24 hours

 ConditionsComfort  
Time TempWeatherWind HumidityBarometerVisibility
3:00 PM
Jul 24
79 °FPassing clouds.10 mph45%29.83 "HgN/A
2:30 PM79 °FPassing clouds.8 mph48%29.83 "HgN/A
2:00 PM79 °FBroken clouds.7 mph48%29.83 "HgN/A
1:30 PM77 °FBroken clouds.7 mph51%29.83 "HgN/A
1:00 PM75 °FBroken clouds.9 mph57%29.83 "HgN/A
12:30 PM77 °FBroken clouds.6 mph54%29.80 "HgN/A
11:30 AM73 °FScattered clouds.5 mph57%29.80 "HgN/A
11:00 AM73 °FScattered clouds.6 mph57%29.80 "HgN/A
10:30 AM75 °FScattered clouds.3 mph61%29.80 "HgN/A
10:00 AM73 °FPassing clouds.3 mph65%29.80 "HgN/A
9:30 AM72 °FScattered clouds.5 mph69%29.80 "HgN/A
9:00 AM72 °FScattered clouds.2 mph61%29.80 "HgN/A
8:30 AM70 °FScattered clouds.2 mph69%29.80 "HgN/A
7:30 AM66 °FSunny.1 mph83%29.80 "Hg10 mi
7:00 AM64 °FSunny.1 mph94%29.80 "Hg10 mi
6:30 AM63 °FSunny.3 mph94%29.80 "Hg10 mi
6:00 AM59 °FClear.1 mph94%29.80 "Hg10 mi
5:30 AM59 °FClear.3 mph94%29.80 "Hg10 mi
5:00 AM59 °FClear.1 mph100%29.80 "Hg10 mi
4:30 AM59 °FClear.No wind94%29.80 "Hg10 mi
4:00 AM59 °FClear.1 mph100%29.77 "Hg10 mi
3:00 AM59 °FClear.No wind100%29.80 "Hg10 mi
2:30 AM59 °FClear.3 mph100%29.80 "Hg10 mi
2:00 AM61 °FClear.2 mph94%29.80 "Hg10 mi
1:30 AM61 °FClear.3 mph100%29.80 "Hg10 mi
1:00 AM63 °FClear.3 mph94%29.80 "Hg10 mi
12:30 AM63 °FClear.3 mph94%29.80 "Hg10 mi
12:00 AM63 °FClear.3 mph94%29.80 "Hg10 mi
11:30 PM
Jul 23
64 °FClear.3 mph88%29.80 "Hg10 mi
11:00 PM64 °FClear.2 mph88%29.80 "Hg10 mi
10:30 PM64 °FClear.1 mph94%29.80 "Hg10 mi
10:00 PM66 °FClear.2 mph83%29.80 "Hg10 mi
9:00 PM70 °FSunny.2 mph78%29.80 "Hg10 mi
8:30 PM72 °FSunny.3 mph69%29.80 "Hg10 mi
8:00 PM73 °FSunny.3 mph61%29.80 "Hg10 mi
7:30 PM73 °FSunny.6 mph61%29.77 "Hg10 mi
7:00 PM75 °FPassing clouds.7 mph57%29.77 "HgN/A
6:30 PM75 °FPassing clouds.8 mph57%29.77 "HgN/A
6:00 PM75 °FPassing clouds.9 mph57%29.77 "HgN/A
5:30 PM73 °FPassing clouds.13 mph61%29.77 "HgN/A
5:00 PM75 °FScattered clouds.14 mph54%29.80 "HgN/A
4:30 PM73 °FScattered clouds.12 mph57%29.80 "HgN/A
4:00 PM75 °FPartly sunny.15 mph57%29.77 "HgN/A
3:30 PM75 °FScattered clouds.14 mph57%29.77 "HgN/A
3:00 PM77 °FScattered clouds.14 mph54%29.77 "HgN/A
Weather by CustomWeather, © 2014

See weather overviewHow to use our weather pages